When you browse on this site, cookies collect data to enhance your experience and personalize the content and advertising you see.
Visit our Privacy Policy to learn more. By continuing to use the site, you agree to this use of cookies and data.
  • In Lithuania
  • List of Countries
  • For 7 days
  • Water Temperature
  • Weather Map
  • Weather Widgets
  • user-avatar
    Login

    Hourly Weather Fier

    Today, 4 April, Saturday

    Time Temperature Precipitation Wind Pressure Humidity
    00:00 +10°C° 0.2 mm 3 mps 757 mmHg 93%
    01:00 +10°C° 0 mm 3 mps 757 mmHg 91%
    02:00 +10°C° 0.2 mm 3 mps 757 mmHg 91%
    03:00 +10°C° 0.2 mm 3 mps 756 mmHg 91%
    04:00 +10°C° 0.2 mm 4 mps 756 mmHg 91%
    05:00 +11°C° 0 mm 3 mps 756 mmHg 88%
    06:00 +11°C° 0 mm 3 mps 756 mmHg 85%
    07:00 +12°C° 0 mm 3 mps 756 mmHg 81%
    08:00 +13°C° 0 mm 3 mps 756 mmHg 75%
    09:00 +15°C° 0 mm 4 mps 756 mmHg 68%
    10:00 +16°C° 0 mm 5 mps 756 mmHg 62%
    11:00 +17°C° 0 mm 5 mps 756 mmHg 59%
    12:00 +17°C° 0 mm 5 mps 756 mmHg 57%
    13:00 +19°C° 0 mm 6 mps 756 mmHg 52%
    14:00 +19°C° 0 mm 6 mps 756 mmHg 54%
    15:00 +17°C° 0 mm 6 mps 755 mmHg 55%
    16:00 +17°C° 0 mm 6 mps 755 mmHg 56%
    17:00 +15°C° 0 mm 5 mps 755 mmHg 59%
    18:00 +14°C° 0 mm 5 mps 756 mmHg 62%
    19:00 +13°C° 0 mm 4 mps 756 mmHg 64%
    20:00 +12°C° 0 mm 4 mps 756 mmHg 66%
    21:00 +12°C° 0 mm 4 mps 756 mmHg 67%
    22:00 +11°C° 0 mm 4 mps 757 mmHg 69%
    23:00 +11°C° 0 mm 4 mps 757 mmHg 69%

    Tomorrow, 5 April, Sunday

    Time Temperature Precipitation Wind Pressure Humidity
    00:00 +11°C° 0 mm 4 mps 757 mmHg 70%
    01:00 +11°C° 0 mm 4 mps 757 mmHg 70%
    02:00 +11°C° 0 mm 4 mps 757 mmHg 71%
    03:00 +11°C° 0 mm 4 mps 757 mmHg 71%
    04:00 +11°C° 0 mm 4 mps 757 mmHg 72%
    05:00 +12°C° 0 mm 4 mps 757 mmHg 72%
    06:00 +12°C° 0 mm 4 mps 757 mmHg 72%
    07:00 +13°C° 0 mm 4 mps 757 mmHg 72%
    08:00 +14°C° 0 mm 4 mps 758 mmHg 67%
    09:00 +16°C° 0 mm 5 mps 758 mmHg 62%
    10:00 +17°C° 0 mm 5 mps 759 mmHg 57%
    11:00 +17°C° 0 mm 5 mps 759 mmHg 56%
    12:00 +19°C° 0 mm 6 mps 759 mmHg 56%
    13:00 +19°C° 0 mm 6 mps 759 mmHg 55%
    14:00 +17°C° 0 mm 6 mps 759 mmHg 56%
    15:00 +17°C° 0 mm 7 mps 760 mmHg 57%
    16:00 +16°C° 0 mm 7 mps 760 mmHg 59%
    17:00 +15°C° 0 mm 6 mps 760 mmHg 60%
    18:00 +14°C° 0 mm 6 mps 761 mmHg 61%
    19:00 +13°C° 0 mm 6 mps 761 mmHg 62%
    20:00 +13°C° 0 mm 5 mps 762 mmHg 64%
    21:00 +13°C° 0 mm 5 mps 762 mmHg 65%
    22:00 +12°C° 0 mm 5 mps 763 mmHg 66%
    23:00 +12°C° 0 mm 5 mps 763 mmHg 67%

    Day after tomorrow, 6 April, Monday

    Time Temperature Precipitation Wind Pressure Humidity
    00:00 +12°C° 0 mm 5 mps 763 mmHg 67%
    01:00 +12°C° 0 mm 5 mps 764 mmHg 67%
    02:00 +11°C° 0 mm 4 mps 764 mmHg 68%
    03:00 +11°C° 0 mm 4 mps 764 mmHg 68%
    04:00 +11°C° 0 mm 4 mps 764 mmHg 69%
    05:00 +11°C° 0 mm 4 mps 764 mmHg 69%
    06:00 +12°C° 0 mm 3 mps 765 mmHg 70%
    07:00 +12°C° 0 mm 3 mps 765 mmHg 70%
    08:00 +13°C° 0 mm 3 mps 765 mmHg 64%
    09:00 +16°C° 0 mm 3 mps 766 mmHg 58%
    10:00 +17°C° 0 mm 3 mps 766 mmHg 51%
    11:00 +18°C° 0 mm 4 mps 766 mmHg 49%
    12:00 +18°C° 0 mm 4 mps 766 mmHg 47%
    13:00 +19°C° 0 mm 4 mps 766 mmHg 45%
    14:00 +18°C° 0 mm 4 mps 765 mmHg 47%
    15:00 +18°C° 0 mm 4 mps 765 mmHg 48%
    16:00 +18°C° 0 mm 4 mps 765 mmHg 50%
    17:00 +15°C° 0 mm 5 mps 766 mmHg 51%
    18:00 +14°C° 0 mm 5 mps 766 mmHg 53%
    19:00 +13°C° 0 mm 6 mps 766 mmHg 54%
    20:00 +12°C° 0 mm 5 mps 767 mmHg 56%
    21:00 +12°C° 0 mm 5 mps 767 mmHg 58%
    22:00 +11°C° 0 mm 4 mps 768 mmHg 60%
    23:00 +11°C° 0 mm 4 mps 768 mmHg 61%

    7 April, Tuesday

    Time Temperature Precipitation Wind Pressure Humidity
    00:00 +11°C° 0 mm 4 mps 768 mmHg 62%
    01:00 +10°C° 0 mm 4 mps 768 mmHg 63%
    02:00 +10°C° 0 mm 3 mps 768 mmHg 64%
    03:00 +9°C° 0 mm 3 mps 768 mmHg 65%
    04:00 +9°C° 0 mm 3 mps 768 mmHg 66%
    05:00 +10°C° 0 mm 3 mps 768 mmHg 64%
    06:00 +10°C° 0 mm 3 mps 768 mmHg 63%
    07:00 +11°C° 0 mm 3 mps 767 mmHg 62%
    08:00 +13°C° 0 mm 3 mps 767 mmHg 53%
    09:00 +16°C° 0 mm 3 mps 768 mmHg 45%
    10:00 +18°C° 0 mm 3 mps 768 mmHg 37%
    11:00 +18°C° 0 mm 4 mps 768 mmHg 36%
    12:00 +19°C° 0 mm 4 mps 768 mmHg 34%
    13:00 +20°C° 0 mm 5 mps 768 mmHg 33%
    14:00 +20°C° 0 mm 5 mps 767 mmHg 35%
    15:00 +19°C° 0 mm 5 mps 767 mmHg 37%
    16:00 +19°C° 0 mm 5 mps 767 mmHg 39%
    17:00 +17°C° 0 mm 4 mps 767 mmHg 42%
    18:00 +15°C° 0 mm 4 mps 767 mmHg 44%
    19:00 +13°C° 0 mm 3 mps 767 mmHg 47%
    20:00 +12°C° 0 mm 3 mps 768 mmHg 47%
    21:00 +12°C° 0 mm 3 mps 768 mmHg 48%
    22:00 +11°C° 0 mm 3 mps 768 mmHg 49%
    23:00 +11°C° 0 mm 3 mps 768 mmHg 51%

    8 April, Wednesday

    Time Temperature Precipitation Wind Pressure Humidity
    00:00 +10°C° 0 mm 2 mps 768 mmHg 52%
    01:00 +10°C° 0 mm 2 mps 768 mmHg 54%
    02:00 +9°C° 0 mm 2 mps 768 mmHg 55%
    03:00 +9°C° 0 mm 2 mps 768 mmHg 56%
    04:00 +9°C° 0 mm 2 mps 768 mmHg 57%
    05:00 +9°C° 0 mm 2 mps 768 mmHg 58%
    06:00 +10°C° 0 mm 2 mps 768 mmHg 59%
    07:00 +11°C° 0 mm 3 mps 767 mmHg 60%
    08:00 +13°C° 0 mm 3 mps 767 mmHg 55%
    09:00 +16°C° 0 mm 3 mps 767 mmHg 49%
    10:00 +18°C° 0 mm 3 mps 767 mmHg 43%
    11:00 +18°C° 0 mm 3 mps 766 mmHg 41%
    12:00 +19°C° 0 mm 4 mps 766 mmHg 40%
    13:00 +20°C° 0 mm 4 mps 765 mmHg 39%
    14:00 +19°C° 0 mm 5 mps 765 mmHg 43%
    15:00 +19°C° 0 mm 5 mps 765 mmHg 46%
    16:00 +17°C° 0 mm 6 mps 764 mmHg 50%
    17:00 +15°C° 0 mm 5 mps 764 mmHg 58%
    18:00 +13°C° 0 mm 4 mps 764 mmHg 66%
    19:00 +12°C° 0 mm 4 mps 765 mmHg 74%
    20:00 +11°C° 0 mm 3 mps 765 mmHg 74%
    21:00 +11°C° 0 mm 3 mps 765 mmHg 74%
    22:00 +12°C° 0 mm 2 mps 765 mmHg 74%
    23:00 +10°C° 0 mm 2 mps 765 mmHg 71%

    9 April, Thursday

    Time Temperature Precipitation Wind Pressure Humidity
    00:00 +10°C° 0 mm 2 mps 765 mmHg 67%
    01:00 +10°C° 0 mm 2 mps 765 mmHg 64%
    02:00 +10°C° 0 mm 2 mps 765 mmHg 62%
    03:00 +9°C° 0 mm 2 mps 764 mmHg 61%
    04:00 +9°C° 0 mm 2 mps 764 mmHg 60%
    05:00 +10°C° 0 mm 2 mps 764 mmHg 59%
    06:00 +12°C° 0 mm 2 mps 764 mmHg 59%
    07:00 +13°C° 0 mm 2 mps 764 mmHg 58%
    08:00 +15°C° 0 mm 2 mps 764 mmHg 54%
    09:00 +16°C° 0 mm 2 mps 764 mmHg 50%
    10:00 +18°C° 0 mm 3 mps 764 mmHg 46%
    11:00 +19°C° 0 mm 3 mps 763 mmHg 47%
    12:00 +19°C° 0 mm 4 mps 763 mmHg 48%
    13:00 +20°C° 0 mm 5 mps 763 mmHg 49%
    14:00 +19°C° 0 mm 5 mps 763 mmHg 53%
    15:00 +19°C° 0 mm 5 mps 762 mmHg 57%
    16:00 +17°C° 0 mm 5 mps 762 mmHg 61%
    17:00 +15°C° 0 mm 4 mps 762 mmHg 68%
    18:00 +14°C° 0 mm 3 mps 762 mmHg 74%
    19:00 +13°C° 0 mm 2 mps 762 mmHg 81%
    20:00 +13°C° 0 mm 2 mps 763 mmHg 81%
    21:00 +12°C° 0 mm 2 mps 763 mmHg 81%
    22:00 +12°C° 0 mm 1 mps 763 mmHg 82%
    23:00 +12°C° 0 mm 1 mps 763 mmHg 81%
    Show more